CAPE
1964 1963 1881 1918 1966 1902 2096 2226 2228 2309 2635 2478 2709 2860 3021 3331 3474 3488 3569 3619 3623 3595 3669 3736 3724 3712 3692 3765 3732 3614 3542 3847 3631 3545 3628 3496 3530 3451 3331 3065 2722 2571
1940 1888 1834 1846 1957 2111 2255 2200 2273 2306 2657 2823 2742 2921 3230 3426 3390 3343 3510 3544 3578 3508 3656 3654 3681 3712 3763 3618 3588 3400 3332 3386 3499 3527 3453 3487 3561 3593 3359 3336 2995 2772
1970 1887 1818 1745 1746 1872 1608 1919 2161 2256 2350 2418 2690 2995 3103 3098 3185 3261 3371 3483 3487 3374 3646 3660 3653 3721 3720 3782 3820 3486 3353 3541 3657 3345 3383 3559 3564 3673 3638 3114 3134 3054
2038 1939 1750 1610 1607 1698 1710 1985 2150 2159 2051 2350 2430 2439 2683 2652 2914 3144 3264 3294 3397 3489 3472 3518 3520 3564 3707 3800 3890 3527 3384 3419 3738 3935 3663 3540 3528 3618 3718 3573 3236 3033
2162 2050 1844 1754 1712 1823 1965 1982 1767 1908 1916 2035 2080 2344 2690 2800 2932 2790 3041 3216 3317 3393 3475 3498 3572 3563 3782 3800 3743 3320 3127 3141 3424 3632 3522 3551 3611 3508 3688 3648 3506 3288
2294 2231 2110 1988 1913 2002 1950 1847 1799 1827 1883 1882 2114 2108 2239 2628 2642 2615 2813 2828 2957 2941 2958 3183 3400 3424 3548 3605 3481 3181 3098 3026 3358 3438 3502 3690 3636 3743 3850 3725 3716 3512
2348 2327 2207 2074 2042 2047 1947 1885 1918 1912 1834 1871 2076 2001 2044 2205 2481 2609 2753 2783 2664 2834 2765 3047 3418 3418 3530 3585 3418 3134 3064 3157 3221 3080 3106 3512 3708 3889 3973 3881 3887 3786
2258 2216 2223 2145 2039 2007 1989 1958 1985 2001 1937 1976 2052 2080 2030 2028 2282 2394 2592 2673 2609 2801 3011 3096 3452 3612 3441 3537 3545 3355 3214 2981 2933 3001 3045 3048 3314 3584 3860 3743 3905 3970
2212 2238 2185 2143 2046 2001 1921 1865 1951 1986 1950 1966 1814 1817 2043 1984 2147 2148 2536 2691 2598 2705 3100 3174 3367 3390 3321 3396 3478 3560 3580 3353 3210 3208 3059 3017 3234 3508 3733 3803 3572 3498
2264 2195 2028 2019 1927 1939 1893 1851 1820 1939 1970 1861 1772 1766 1927 2052 2068 2154 2520 2816 2668 2766 3029 3061 3168 3193 3214 3280 3473 3573 3637 3732 3624 3462 3372 3415 3535 3747 3833 3916 3800 3748
2119 2034 2000 1978 1882 1881 1896 1832 1786 1807 1932 1820 1760 1725 1859 2038 2161 2258 2496 2699 2491 2641 2837 2904 2996 3134 3198 3056 3146 3327 3474 3478 3623 3725 3694 3758 3732 3866 3827 3869 3873 3809
2091 1979 1931 1929 1902 1871 1875 1848 1805 1784 1870 1881 1833 1818 1872 1943 2181 2217 2293 2582 2546 2565 2774 2972 3024 3086 3237 3202 3004 3146 3333 3362 3469 3670 3610 3705 3729 3682 3805 3824 3712 3778
2025 1964 1955 1926 1977 1895 1884 1873 1822 1786 1782 1879 1896 1904 1903 1939 1983 2188 2303 2418 2671 2673 2707 2977 3113 3123 3240 3294 3234 3203 3319 3442 3288 3469 3528 3558 3598 3526 3454 3558 3617 3614
2050 1986 2022 2048 2032 2118 2041 1925 1890 1853 1873 1854 1969 1982 1952 1966 1980 2068 2308 2369 2491 2678 2785 2895 3122 3122 3210 3305 3324 3251 3282 3403 3409 3384 3426 3487 3508 3530 3408 3337 3439 3488
2209 2108 2138 2167 2116 2246 2155 2050 1996 1987 1982 1958 2002 2026 1990 2045 2059 2049 2241 2388 2405 2598 2714 2798 2882 2949 2993 3150 3251 3292 3238 3129 3314 3412 3414 3430 3529 3460 3447 3496 3411 3354
2435 2273 2256 2297 2226 2306 2336 2180 2055 2074 1999 2053 2081 2048 2070 2079 2129 2180 2205 2345 2483 2682 2805 2847 2856 2880 2792 2452 2601 3064 3243 3087 3180 3382 3465 3375 3518 3590 3465 3457 3506 3449
2536 2435 2378 2322 2274 2255 2334 2270 2204 2140 2124 2242 2195 2161 2118 2221 2220 2218 2168 2211 2316 2476 2682 2714 2805 2795 2460 2211 2068 2068 2609 3143 3252 3389 3507 3500 3449 3607 3666 3474 3496 3567
2327 2347 2323 2389 2402 2324 2369 2320 2216 2224 2258 2333 2311 2274 2338 2281 2336 2219 2319 2196 2143 2254 2363 2516 2676 2450 2267 2084 1963 1895 1900 2579 2967 3162 3204 3337 3419 3314 3445 3488 3455 3412
2400 2447 2444 2392 2366 2330 2383 2407 2401 2365 2350 2324 2197 2241 2277 2403 2356 2278 2341 2343 2291 2395 2309 2307 2459 2279 2055 1934 1895 1852 1873 1947 2556 2869 3032 3182 3241 3426 3431 3510 3658 3642
2569 2486 2456 2466 2450 2422 2438 2390 2340 2364 2211 2108 2102 2231 2339 2384 2256 2358 2454 2584 2531 2525 2584 2452 2418 2256 1999 1836 1754 1771 1826 1846 2405 2639 2952 3127 3257 3317 3408 3503 3655 3796
2580 2527 2548 2526 2547 2510 2454 2422 2381 2369 2266 2130 2120 2252 2433 2463 2392 2373 2423 2507 2530 2503 2619 2615 2396 2180 2102 1875 1715 1668 1693 1756 2227 2582 2775 3035 3160 3305 3431 3483 3552 3693
2638 2663 2638 2663 2603 2512 2490 2477 2495 2560 2540 2365 2248 2245 2345 2374 2445 2320 2410 2493 2474 2450 2373 2432 2408 2046 2070 1985 1848 1737 1699 1702 1916 2580 2732 2811 2995 3174 3351 3486 3609 3622
2678 2673 2730 2688 2680 2638 2589 2565 2614 2699 2667 2601 2482 2400 2386 2391 2466 2402 2440 2474 2441 2425 2425 2389 2432 2141 1828 1838 1850 1829 1812 1803 1877 2309 2662 2835 2975 3095 3292 3414 3528 3657
2776 2762 2811 2800 2848 2788 2782 2656 2672 2690 2682 2664 2632 2505 2405 2513 2569 2548 2539 2549 2429 2433 2398 2496 2434 2317 1872 1638 1552 1625 1715 1798 2220 2458 2713 2876 3002 3143 3254 3432 3507 3122
2828 2898 2897 2860 2965 2889 2802 2832 2813 2858 2766 2785 2728 2655 2638 2763 2648 2682 2730 2738 2592 2392 2259 2247 2396 2334 2093 2006 1887 1795 1682 1871 2452 2576 2684 2835 2849 3000 3186 3342 3425 3185
2849 3007 2963 2872 2995 3034 2949 3021 3072 2968 3003 2985 2928 2840 2870 2884 2854 2848 2917 2933 2816 2458 2464 2475 2455 2453 2417 2418 2366 2280 2159 2070 2354 2510 2534 2668 2870 2718 2995 3161 3240 3389
Wind_Speed
8 10 10 9 9 9 8 6 7 7 8 9 9 10 12 12 11 12 12 14 16 17 18 18 19 19 19 20 21 21 22 21 20 17 16 13 12 12 12 11 11 11
8 9 12 11 11 10 9 7 7 7 8 8 10 11 11 10 9 9 10 11 12 13 14 15 15 16 16 16 17 19 20 20 21 18 19 17 13 10 11 10 10 9
9 10 10 9 9 8 7 8 8 8 10 9 10 11 10 8 7 7 8 8 8 8 9 9 10 11 11 12 12 14 15 16 17 17 18 19 16 12 10 9 8 7
9 10 10 9 10 10 10 11 10 10 11 11 11 11 9 7 6 5 5 5 5 5 5 5 6 6 7 8 8 9 11 12 12 12 14 15 16 15 12 8 8 7
10 12 13 12 12 12 12 11 9 10 10 12 11 10 8 7 5 4 3 3 3 3 2 3 3 4 5 5 6 6 7 8 8 9 10 11 12 13 13 10 8 8
13 14 14 14 13 13 13 12 11 11 11 11 10 10 9 6 5 4 2 2 1 1 1 2 3 4 5 6 6 5 5 5 5 6 7 8 8 8 8 9 10 9
14 15 14 15 14 14 15 15 14 13 13 13 13 11 9 7 5 4 3 2 1 1 2 3 4 5 6 6 6 6 5 5 4 5 6 5 4 6 6 6 8 9
15 17 17 17 15 16 16 16 15 15 14 14 12 11 10 8 6 6 5 4 3 3 4 4 5 6 6 7 7 7 6 5 4 5 5 5 4 4 5 4 5 8
18 19 19 16 14 16 15 16 16 15 16 14 13 13 11 9 8 7 7 6 6 6 6 6 6 5 6 6 6 6 6 6 6 5 4 3 3 3 2 2 4 6
19 20 18 16 14 17 16 16 17 17 16 14 13 14 12 12 10 9 9 9 8 8 7 7 6 6 6 6 6 5 5 5 5 5 4 3 2 1 1 2 2 3
17 19 18 15 14 17 17 17 17 17 17 14 14 13 13 14 13 11 10 10 10 8 7 6 6 7 6 5 4 3 4 4 4 5 4 3 2 1 2 3 3 2
17 17 16 14 14 16 17 18 18 18 18 17 15 14 14 14 14 13 12 11 10 9 8 7 7 6 6 5 3 2 2 3 4 5 5 4 3 2 3 4 4 2
16 17 17 17 17 18 21 21 19 19 18 18 17 16 15 15 14 13 14 12 11 10 8 8 7 6 5 5 4 2 3 4 5 6 6 6 5 4 4 5 4 4
16 17 18 19 20 21 21 21 21 21 20 20 20 17 15 14 14 14 14 13 11 10 9 8 6 5 5 6 6 5 5 5 6 6 7 7 6 6 5 5 5 4
19 20 21 22 21 22 21 22 22 22 21 21 20 18 18 16 15 15 14 12 11 10 9 8 6 5 6 8 8 7 6 5 6 7 7 6 6 6 6 6 5 5
21 22 23 22 22 21 21 22 22 22 21 20 19 18 19 19 17 16 14 12 12 10 9 8 6 7 8 11 11 9 7 6 6 7 7 7 7 6 6 6 6 6
22 23 24 22 21 21 21 20 20 21 21 20 19 19 19 20 18 16 14 12 11 10 8 7 7 8 12 15 14 12 8 6 7 7 8 7 7 7 6 6 7 7
22 22 22 22 22 21 21 21 21 21 21 21 20 19 20 19 17 14 13 12 12 9 7 7 7 8 14 16 15 14 12 8 7 7 8 8 8 7 7 7 6 7
24 23 22 23 22 22 23 24 22 21 20 20 18 18 19 17 14 13 12 12 11 9 6 6 7 10 15 16 16 16 15 11 7 7 7 8 8 9 8 7 7 8
24 23 22 23 24 25 25 23 21 19 18 18 19 18 17 15 12 11 13 12 10 9 8 7 7 11 16 17 17 17 17 14 9 8 8 8 8 9 9 7 6 7
23 22 23 24 25 24 24 21 19 19 18 17 17 16 15 14 13 12 12 11 10 9 9 8 8 11 16 18 18 18 18 16 10 9 8 8 9 9 8 7 6 6
23 23 23 23 23 22 20 18 18 18 17 17 17 15 15 15 14 13 11 11 10 9 8 7 9 14 17 18 19 19 20 15 11 10 9 9 9 8 9 9 8 6
23 22 22 22 21 19 17 16 17 17 18 19 16 15 15 13 13 12 13 12 11 10 9 10 11 16 19 20 21 23 22 15 13 11 9 8 9 9 9 9 9 9
23 22 21 21 19 16 15 15 16 17 16 17 14 13 12 12 13 13 13 13 11 10 11 12 12 18 23 21 23 26 23 17 14 12 9 9 9 9 10 10 10 11
23 22 20 18 16 14 14 14 14 14 14 14 13 12 11 13 13 13 13 13 11 10 13 12 12 17 24 23 25 27 24 17 15 12 9 8 10 10 11 12 11 14
22 20 18 16 14 14 14 14 15 14 12 12 11 12 12 12 12 11 11 12 12 11 12 11 11 13 21 23 25 27 26 20 17 14 10 11 12 12 15 14 13 14
Wind_Direction
164 177 187 190 183 179 179 179 169 158 159 155 141 123 111 107 100 91 86 87 86 87 88 89 89 89 89 87 87 87 86 83 84 83 86 93 100 101 105 100 98 101
170 182 194 194 190 190 187 188 181 165 165 160 142 129 123 118 108 101 96 91 86 84 85 83 83 82 82 84 83 85 86 84 81 80 79 78 87 94 99 100 101 104
181 189 197 194 187 177 165 179 178 168 166 154 144 137 134 129 118 108 105 98 95 90 83 79 75 71 70 72 72 79 83 82 80 78 76 74 74 78 91 101 108 99
187 190 195 190 184 179 179 183 183 177 168 166 148 143 145 145 134 115 112 103 106 100 91 75 64 56 49 47 50 65 73 79 80 77 77 78 74 74 75 85 100 109
200 198 198 195 188 184 185 183 175 175 164 160 160 161 163 163 158 131 128 125 117 104 85 53 32 26 9 14 19 43 51 63 65 69 76 78 76 73 71 68 74 86
207 205 206 201 193 188 183 181 179 175 170 169 167 168 166 170 166 149 147 130 127 90 46 359 347 347 345 345 345 17 26 30 30 42 58 71 77 70 66 58 60 69
215 213 210 203 192 185 183 184 185 180 179 175 182 176 180 182 184 180 188 200 187 266 326 308 311 312 311 323 330 347 4 15 20 28 49 68 73 72 62 49 53 59
216 214 212 206 194 186 185 189 188 188 188 189 186 186 191 192 200 201 207 228 253 279 288 297 294 301 304 301 314 328 350 343 356 9 32 66 79 79 69 61 42 54
222 218 218 212 199 191 188 190 192 192 195 191 187 191 198 202 209 214 226 243 257 265 276 283 290 296 295 299 308 327 337 338 331 340 16 47 47 59 70 35 42 54
228 224 227 220 203 194 193 194 197 199 199 194 195 198 207 215 217 224 236 248 254 259 265 273 283 289 293 301 320 331 335 340 334 332 340 347 359 22 351 300 353 31
233 230 231 227 211 201 199 202 202 203 204 201 202 203 210 221 225 230 237 247 249 256 262 274 286 291 299 311 319 327 340 332 322 317 322 327 317 299 257 259 280 349
237 234 235 235 225 212 208 209 208 207 208 207 208 210 216 221 229 233 237 244 248 254 262 272 280 288 300 313 330 319 300 301 295 298 302 300 288 272 262 262 268 298
239 237 234 236 232 222 217 215 212 211 210 211 214 214 219 224 229 236 239 244 250 258 267 274 282 288 291 299 302 292 283 283 285 290 291 283 279 271 256 255 264 274
236 235 233 234 233 229 224 221 218 216 214 214 217 220 222 227 233 240 243 246 253 262 270 274 280 281 286 288 287 287 285 291 293 290 290 287 280 276 266 257 261 269
232 230 229 233 235 233 231 228 226 224 222 222 223 223 224 229 234 241 246 251 257 263 270 275 279 279 273 280 284 292 295 301 302 302 297 285 275 270 267 266 263 266
231 228 229 233 235 233 233 231 229 229 229 230 230 229 229 230 234 240 247 255 262 267 271 271 272 266 283 305 295 286 295 289 289 294 296 287 273 263 257 262 266 269
228 227 228 231 232 231 231 231 229 227 228 230 231 232 233 234 238 244 248 252 260 263 273 274 269 268 301 304 311 314 299 289 291 290 292 291 282 267 252 247 249 263
225 226 226 227 230 231 232 231 228 226 228 232 234 237 237 238 241 245 244 246 245 252 263 268 268 285 300 307 311 317 314 303 291 291 294 296 292 286 267 253 246 248
225 226 227 227 229 230 230 231 230 227 229 231 234 235 236 240 241 243 243 243 241 245 252 261 261 287 303 309 311 314 320 315 301 302 304 303 299 296 287 275 261 255
226 226 226 227 229 231 232 233 232 231 230 231 231 235 238 241 245 244 241 241 239 241 244 250 267 281 303 309 310 313 315 309 306 317 315 310 306 298 288 285 277 266
229 228 228 230 233 235 236 235 235 232 235 234 236 240 243 244 244 243 239 239 241 245 247 254 261 283 293 305 306 308 311 305 300 309 310 308 305 301 296 288 281 280
233 232 233 235 238 239 240 239 236 237 239 239 237 237 237 238 239 237 239 242 246 249 250 256 260 284 291 297 301 301 304 289 293 301 309 308 303 301 295 286 292 302
235 237 237 239 242 243 242 240 238 238 239 239 239 238 238 240 239 240 237 239 246 251 254 254 256 276 289 294 296 299 291 284 288 290 296 307 298 293 291 293 297 307
235 237 238 241 241 242 240 235 235 235 239 241 241 240 236 237 239 238 244 248 256 262 264 262 262 272 288 292 295 297 297 291 286 288 291 289 288 286 281 283 298 320
235 236 238 240 238 235 233 233 234 234 235 237 237 236 234 236 240 244 250 255 263 270 272 276 267 273 289 295 298 299 299 288 289 286 283 280 277 275 278 279 288 304
232 234 235 234 232 229 226 225 226 227 232 234 233 232 234 235 241 245 251 252 258 267 267 279 277 272 282 300 299 302 308 293 288 289 283 273 271 271 271 278 291 296